Station NAXR1 - Potters Cove, Narragansett Bay Reserve, RI Image indicating link to RSS feed of recent meteorological observations for station NAXR1


Conditions at NAXR1 as of
(3:45 am EDT)
0745 GMT on 04/21/2024:
     

Click on the graph icon in the table below to see a time series plot of the last five days of that observation.

5-day plot - Wind Direction Wind Direction (WDIR):NNE ( 30 deg true )
5-day plot - Wind Speed Wind Speed (WSPD): 4.1 kts
5-day plot - Atmospheric Pressure Atmospheric Pressure (PRES):29.97 in
5-day plot - Air Temperature Air Temperature (ATMP): 40.3 °F
5-day plot - Dew Point Dew Point (DEWP): 27.1 °F
5-day plot - Wind Chill Wind Chill (CHILL): 37.0 °F
5-day plot -  Wind Speed, Wind Gust and Atmospheric Pressure Combined plot of Wind Speed, Gust, and Air Pressure
Previous observations
TIME
(EDT)
5-day plot - Wind Direction
WDIR
 
5-day plot - Wind Speed
WSPD
kts
5-day plot - Wind Gust
GST
kts
5-day plot - Wave Height
WVHT
ft
5-day plot - Dominant Wave Period
DPD
sec
5-day plot - Average Wave Period
APD
sec
5-day plot - Mean Wave Direction
MWD
 
5-day plot - Atmospheric Pressure
PRES
in
5-day plot - Pressure Tendency
PTDY
in
5-day plot - Air Temperature
ATMP
°F
5-day plot - Water Temperature
WTMP
°F
5-day plot - Dew Point
DEWP
°F
5-day plot - Salinity
SAL
psu
5-day plot - Visibility
VIS
nmi
5-day plot - Tide (above MLLW)
TIDE
ft
2024-04-21 03:30 am NE 2.9-----29.97- 40.8- 27.3---
2024-04-21 03:15 am NE 5.1-----29.94- 41.4- 27.3---
2024-04-21 03:00 amNNE 4.1-----29.97+0.00 41.2- 27.7---
2024-04-21 02:45 am NE 4.1-----29.97- 41.7- 27.7---
2024-04-21 02:30 am NE 5.1-----29.97- 42.1- 27.1---
2024-04-21 02:15 am NE 5.1-----29.97- 42.4- 27.1---
2024-04-21 02:00 am NE 6.0-----29.97+0.03 43.0- 27.1---
2024-04-21 01:45 am NE 5.1-----29.97- 43.2- 27.3---
2024-04-21 01:30 am NE 6.0-----29.97- 43.9- 27.0---
2024-04-21 01:15 am NE 7.0-----29.97- 44.2- 27.3---
2024-04-21 01:00 am NE 7.0-----29.97+0.06 44.4- 28.9---
2024-04-21 12:45 amNNE 6.0-----29.97- 44.6- 29.1---
2024-04-21 12:30 am NE 5.1-----29.97- 45.0- 29.8---
2024-04-21 12:15 am NE 6.0-----29.97- 45.5- 30.7---
2024-04-21 12:00 amNNE 7.0-----29.97+0.09 45.9- 32.0---
2024-04-20 11:45 pm NE 5.1-----29.97- 46.2- 32.4---
2024-04-20 11:30 pm NE 6.0-----29.97- 46.6- 33.1---
2024-04-20 11:15 pmNNE 6.0-----29.94- 46.6- 34.0---
2024-04-20 11:00 pm NE 5.1-----29.94+0.12 46.9- 34.3---
2024-04-20 10:45 pmNNE 6.0-----29.94- 47.5- 34.3---
2024-04-20 10:30 pm NE 7.0-----29.94- 48.2- 34.7---
2024-04-20 10:15 pm NE 8.0-----29.94- 48.9- 36.7---
2024-04-20 10:00 pm NE 9.9-----29.91+0.09 49.6- 37.8---
2024-04-20 09:45 pm NE 7.0-----29.91- 50.5- 39.0---
2024-04-20 09:30 pmNNE 6.0-----29.91- 50.0- 40.3---
2024-04-20 09:15 pm NE 6.0-----29.88- 50.2- 41.2---
2024-04-20 09:00 pm NE 6.0-----29.88+0.09 50.0- 43.5---
2024-04-20 08:45 pmNNE 5.1-----29.88- 50.5- 47.8---
2024-04-20 08:30 pmNNW 5.1-----29.85- 51.6- 49.5---
2024-04-20 08:15 pmWNW 5.1-----29.83- 52.3- 48.9---
2024-04-20 08:00 pmWNW 5.1-----29.83+0.03 53.2- 48.6---
2024-04-20 07:45 pm W 4.1-----29.83- 53.6- 49.3---
2024-04-20 07:30 pmWNW 4.1-----29.83- 53.4- 49.6---
2024-04-20 07:15 pm W 4.1-----29.83- 53.8- 50.4---
2024-04-20 07:00 pm W 1.9-----29.83+0.03 54.3- 50.5---
2024-04-20 06:45 pm E 2.9-----29.83- 54.0- 50.2---
2024-04-20 06:30 pmWNW 4.1-----29.80- 53.6- 49.8---
2024-04-20 06:15 pm W 6.0-----29.80- 54.5- 50.2---
2024-04-20 06:00 pm W 6.0-----29.80-0.06 55.6- 50.5---
2024-04-20 05:45 pm W 5.1-----29.80- 56.8- 50.9---
2024-04-20 05:30 pm W 6.0-----29.80- 56.5- 50.7---
2024-04-20 05:15 pm W 5.1-----29.80- 56.1- 50.7---
2024-04-20 05:00 pm W 5.1-----29.80-0.06 56.8- 51.1---
2024-04-20 04:45 pm W 5.1-----29.80- 55.2- 50.9---
2024-04-20 04:30 pm W 5.1-----29.80- 55.4- 51.1---
2024-04-20 04:15 pm W 5.1-----29.80- 55.9- 50.9---
2024-04-20 04:00 pm W 4.1-----29.80-0.09 54.3- 50.5---
2024-04-20 03:45 pm W 4.1-----29.83- 54.1- 50.7---
2024-04-20 03:30 pm W 2.9-----29.83- 54.3- 51.3---
2024-04-20 03:15 pm W 2.9-----29.83- 54.0- 50.9---
2024-04-20 03:00 pmWNW 2.9-----29.85-0.06 53.4- 50.5---
2024-04-20 02:45 pmWNW 4.1-----29.85- 53.2- 51.1---
2024-04-20 02:30 pm NW 4.1-----29.85- 52.2- 51.1---
2024-04-20 02:15 pmWNW 4.1-----29.85- 51.4- 50.9---
2024-04-20 02:00 pm NW 4.1-----29.85-0.09 51.4- 51.4---
2024-04-20 01:45 pmWNW 4.1-----29.88- 50.9- 50.9---
2024-04-20 01:30 pm NW 4.1-----29.88- 50.7- 50.7---
2024-04-20 01:15 pm NW 4.1-----29.88- 50.2- 50.2---
2024-04-20 01:00 pmWNW 4.1-----29.88-0.06 49.5- 49.5---
2024-04-20 12:45 pmWNW 5.1-----29.88- 49.1- 49.1---
2024-04-20 12:30 pm NW 5.1-----29.91- 48.9- 48.9---
2024-04-20 12:15 pmWNW 5.1-----29.91- 48.4- 48.4---
2024-04-20 12:00 pm W 5.1-----29.91-0.06 48.4- 48.4---
2024-04-20 11:45 amWNW 4.1-----29.91- 48.2- 48.2---
2024-04-20 11:30 am W 4.1-----29.91- 48.0- 48.0---
2024-04-20 11:15 amWSW 1.9-----29.91- 47.7- 47.7---
2024-04-20 11:00 amWNW 2.9-----29.94-0.03 47.1- 47.1---
2024-04-20 10:45 amWNW 4.1-----29.94- 47.1- 47.1---
2024-04-20 10:30 am W 4.1-----29.94- 47.1- 47.1---
2024-04-20 10:15 am W 4.1-----29.94- 47.3- 47.3---
2024-04-20 10:00 amWNW 4.1-----29.94-0.03 46.8- 46.8---
2024-04-20 09:45 amWNW 5.1-----29.97- 46.2- 46.2---
2024-04-20 09:30 am W 4.1-----29.94- 46.0- 46.0---
2024-04-20 09:15 am W 4.1-----29.94- 46.0- 46.0---
2024-04-20 09:00 am W 4.1-----29.97+0.00 45.9- 45.9---
2024-04-20 08:45 am W 4.1-----29.97- 45.9- 45.9---
2024-04-20 08:30 am W 5.1-----29.97- 45.9- 45.9---
2024-04-20 08:15 am W 5.1-----29.97- 46.0- 46.0---
2024-04-20 08:00 am W 4.1-----29.97-0.03 46.0- 46.0---
2024-04-20 07:45 am W 4.1-----29.97- 46.0- 46.0---
2024-04-20 07:30 am W 4.1-----29.97- 46.0- 46.0---
2024-04-20 07:15 amWNW 4.1-----29.97- 46.2- 46.2---
2024-04-20 07:00 amWNW 4.1-----29.97-0.03 46.2- 46.2---
2024-04-20 06:45 amWNW 2.9-----29.97- 46.2- 46.2---
2024-04-20 06:30 am W 2.9-----29.97- 46.0- 46.0---
2024-04-20 06:15 amWNW 1.9-----29.97- 46.0- 46.0---
2024-04-20 06:00 am W 1.9-----29.97-0.03 46.0- 46.0---
2024-04-20 05:45 amWSW 1.9-----29.97- 46.2- 46.2---
2024-04-20 05:30 am W 4.1-----29.97- 46.2- 46.0---
2024-04-20 05:15 am W 2.9-----30.00- 46.2- 46.0---
2024-04-20 05:00 amWNW 2.9-----30.00-0.03 46.2- 46.0---
2024-04-20 04:45 amWNW 2.9-----30.00- 46.0- 45.9---
2024-04-20 04:30 amWNW 2.9-----30.00- 46.0- 45.9---
2024-04-20 04:15 amWNW 2.9-----30.00- 46.0- 45.9---
2024-04-20 04:00 amWNW 2.9-----30.00-0.06 46.0- 45.5---